NOAA 16 DEB, 41076

Orbit data source: Space-Track

NOAA 16 DEB, 41076 is space debris in SSO originally from a launch on Thu, 21 Sep 2000 UTC launched from the Air Force Western Test Range (AFWTR). Debris objects in space refer to the collection of defunct objects orbiting the Earth. Examples of debris include non-operational satellites, rocket bodies, and fragments generated from explosions, collisions, or faulty payload assembly.

Loading next visibility...
Identifier
41076, 2000-055AK
Orbit
SSO
Country
Flag of USUS
Related business
Manufacturer
Unknown
Mission
Spacecraft
Bus & Motor
Unknown
Mass
Unknown
Launch date (UTC)
2000-09-21 (25 years ago)
Launch vehicle
Unknown
Launch site
Air Force Western Test Range (AFWTR)
Object type
Payload
Rocket body
Debris
Shape & HBR
Unknown shape, 0.1 m
Radar Cross Section
Small (<0.1 m²)

Expand to show TLE details & history
Last TLE update: 13 hours ago

TLE from 13 hours ago
0 NOAA 16 DEB
1 41076U 00055AK  25286.96433558  .00071100  00000-0  30492-2 0  9993
2 41076  99.1942 109.3513 0072700 228.3485 131.1505 15.20044418528240
Epoch: 2025-10-13T23:08Z
TLE epoch observation values (Epoch: 2025-10-13T23:08:38.594Z)
Latitude
-0.00005°
Longitude
99.43094°
Altitude
541.884 km
Speed
7.573 km/s
True Right ascension
07h 17m 24s
True Declination
0° 00' 00"
Sunlit
Object was in daylight at epoch
Visualization orbit readout
Latitude
Unknown
Longitude
Unknown
Altitude
Unknown
Speed
Unknown
Apparent Right ascension
Unknown
Apparent Declination
Unknown
Sunlit
N/A
Visualization observer readout
Local Sidereal Time
06:48:27
Azimuth
Unknown
Elevation
Unknown
Doppler factor
Unknown
Orbital elements
Apogee altitude
552.782 km
Perigee altitude
452.733 km
Semi-major axis
6,880.895 km
Eccentricity
0.00727
Inclination
99.1942°
RAAN
109.3513°
Arg. of periapsis
228.3485°
True anomaly
131.77405°
Mean anomaly
131.1505°
Eccentric anomaly
131.46265°
Mean motion
3.80256 °/min
Orbital period
94.67 mins
BSTAR
0.0030492
Loading maneuver chart data...
Computing Atmospheric mass density...
Loading historical data...
Loading historical data...
Loading historical data...
Loading historical data...
Loading historical data...
Loading historical data...
Loading historical data...

Documentation

Showing up to 5 results
|